Starlink 11541

operational
NORAD ID: 63015 Int'l Des: 2025-032 Owner: SPXS Country: US Constellation: starlink
LEOCIRCULAR

About Starlink 11541

Description loading...

Live Position

Loading 3D Globe...

Upcoming Passes

Altitude History

Altitude vs Time

uPlot chart will show altitude changes over time

Two-Line Element Set

1 63015U 25032L 26020.25002315 .00133717 00000-0 10308-2 0 9991
2 63015 43.0006 127.0320 0001520 268.6640 273.1462 15.70795672 6038
Epoch: Jan 20, 2026 • Age: 24 hours

Current Status

Altitude 357.8 km
Velocity 7.70 km/s
Sub-Earth Point 33.45°N, 42.85°E
Launch Date Feb 15, 2025
Age 0.9 years
Type internet

Technical Details

Classification Payload
Mass 960.00 kg
Dry Mass 910.00 kg
Total Mass 960.00 kg
Length 0.30 m
Diameter 4.10 m
Span 29.00 m
Shape Box + pan
Manufacturer SPXS
Bus Type Starlink V2MD
Phase Status In Orbit
Owner/State SPXS/US

Large Constellations

Loading constellations...